Weather History for Sheridan, WY

Change the Weather History Date:

Saturday, December 29, 2012

  Actual Average Record
Temperature  
Mean Temperature 12 °F 22 °F  
Max Temperature 23 °F 35 °F 65 °F (1956)
Min Temperature 1 °F 10 °F -30 °F (1990)
Degree Days  
Heating Degree Days 53 42  
Month to date heating degree days 1170 1223  
Since 1 July heating degree days 2854 3101  
Cooling Degree Days 0 0  
Month to date cooling degree days 0 0  
Year to date cooling degree days 664 419  
Moisture  
Dew Point 3 °F    
Average Humidity 67    
Maximum Humidity 76    
Minimum Humidity 57    
Precipitation  
Precipitation 0.00 in 0.02 in 0.60 in (1922)
Month to date precipitation 0.50 0.53  
Year to date precipitation 9.53 14.13  
Sea Level Pressure  
Sea Level Pressure 30.16 in    
Wind  
Wind Speed 4 mph (West)    
Max Wind Speed 13 mph    
Max Gust Speed 15 mph    
Visibility 10 miles    
Events      
T = Trace of Precipitation, MM = Missing Value Source: NWS Daily Summary

Daily Weather History Graph

Daily Weather History Graph

Search for Another Location

Airport:

Trip Planner

Search our weather history database for the weather conditions in past years. The results will help you decide how hot, cold, wet, or windy it might be!

Date:

Astronomy

Dec. 29, 2012 Rise Set
Actual Time 7:45 AM MST 4:35 PM MST
Civil Twilight 7:11 AM MST 5:09 PM MST
Nautical Twilight 6:34 AM MST 5:46 PM MST
Astronomical Twilight 5:58 AM MST 6:21 PM MST
Moon 6:15 PM MST (12/29) 8:16 AM MST (12/29)
Length of Visible Light 9h 57m
Length of Day
8h 50m
Full, 98% of the Moon is Illuminated
Dec 29
Full
Jan 4
Last Quarter
Jan 11
New
Jan 18
First Quarter
Jan 26
Full

Hourly Weather History & Observations

Time (MST) Temp. Windchill Dew Point Humidity Pressure Visibility Wind Dir Wind Speed Gust Speed Precip Events Conditions
12:53 AM 8.1 °F 1.4 °F -0.0 °F 70% 30.19 in 10.0 mi SSW 3.5 mph - N/A   Clear
1:53 AM 8.1 °F - -0.0 °F 70% 30.19 in 10.0 mi Calm Calm - N/A   Clear
2:53 AM 6.1 °F -4.3 °F -2.0 °F 69% 30.21 in 10.0 mi SSW 5.8 mph - N/A   Clear
3:53 AM 8.1 °F -4.3 °F -0.9 °F 67% 30.21 in 10.0 mi South 8.1 mph - N/A   Clear
4:53 AM 7.0 °F - -0.9 °F 70% 30.20 in 10.0 mi Calm Calm - N/A   Clear
5:53 AM 5.0 °F - -2.9 °F 70% 30.22 in 10.0 mi Calm Calm - N/A   Clear
6:53 AM 1.0 °F - -5.1 °F 75% 30.25 in 10.0 mi Calm Calm - N/A   Clear
7:53 AM 3.0 °F - -4.0 °F 73% 30.26 in 10.0 mi Calm Calm - N/A   Clear
8:53 AM 8.1 °F - -0.9 °F 67% 30.23 in 10.0 mi Calm Calm - N/A   Clear
9:53 AM 9.0 °F -2.2 °F 1.0 °F 70% 30.21 in 10.0 mi NNW 6.9 mph - N/A   Clear
10:53 AM 14.0 °F - 3.9 °F 64% 30.20 in 10.0 mi Calm Calm - N/A   Clear
11:53 AM 17.1 °F 10.0 °F 6.1 °F 62% 30.17 in 10.0 mi NNW 4.6 mph - N/A   Clear
12:53 PM 18.0 °F 11.1 °F 7.0 °F 62% 30.14 in 10.0 mi NNW 4.6 mph - N/A   Clear
1:53 PM 18.0 °F 12.7 °F 9.0 °F 68% 30.12 in 10.0 mi NNW 3.5 mph - N/A   Clear
2:53 PM 21.9 °F - 8.1 °F 55% 30.09 in 10.0 mi Calm Calm - N/A   Clear
3:53 PM 16.0 °F - 7.0 °F 68% 30.09 in 10.0 mi North - - N/A   Clear
4:53 PM 17.1 °F 7.6 °F 8.1 °F 68% 30.11 in 10.0 mi West 6.9 mph - N/A   Clear
5:53 PM 16.0 °F 3.6 °F 8.1 °F 71% 30.12 in 10.0 mi West 10.4 mph - N/A   Clear
6:53 PM 16.0 °F 10.4 °F 7.0 °F 68% 30.13 in 10.0 mi WSW 3.5 mph - N/A   Clear
7:53 PM 15.1 °F 2.5 °F 6.1 °F 68% 30.12 in 10.0 mi West 10.4 mph - N/A   Clear
8:53 PM 15.1 °F - 5.0 °F 64% 30.10 in 10.0 mi Calm Calm - N/A   Clear
9:53 PM 15.1 °F - 5.0 °F 64% 30.10 in 10.0 mi Calm Calm - N/A   Clear
10:53 PM 9.0 °F 0.6 °F 1.0 °F 70% 30.11 in 10.0 mi SSW 4.6 mph - N/A   Clear
11:53 PM 12.0 °F 5.9 °F 1.9 °F 64% 30.09 in 10.0 mi South 3.5 mph - N/A   Clear